Time,TemperatureF,DewpointF,PressureIn,WindDirection,WindDirectionDegrees,WindSpeedMPH,WindSpeedGustMPH,Humidity,HourlyPrecipIn,Conditions,Clouds,dailyrainin,SoftwareType,DateUTC
2013-05-20 00:03:00,45.4,20.0,30.13,ESE,110,0.0,0.0,36,0.00,,,0.00,Wunderground v.1.15,2013-05-20 07:03:00,
2013-05-20 00:08:00,45.1,21.0,30.13,ESE,110,0.0,0.0,38,0.00,,,0.00,Wunderground v.1.15,2013-05-20 07:08:00,
2013-05-20 00:14:00,44.9,21.4,30.13,ESE,110,0.0,0.0,39,0.00,,,0.00,Wunderground v.1.15,2013-05-20 07:14:00,
2013-05-20 00:19:00,44.6,21.7,30.13,ESE,110,0.0,0.0,40,0.00,,,0.00,Wunderground v.1.15,2013-05-20 07:19:00,
2013-05-20 00:25:00,44.5,22.2,30.13,ESE,110,0.0,0.0,41,0.00,,,0.00,Wunderground v.1.15,2013-05-20 07:25:00,
2013-05-20 00:30:00,44.2,22.0,30.13,ESE,110,0.0,0.0,41,0.00,,,0.00,Wunderground v.1.15,2013-05-20 07:30:00,
2013-05-20 00:36:00,43.9,22.8,30.13,SW,222,0.0,0.0,43,0.00,,,0.00,Wunderground v.1.15,2013-05-20 07:36:00,
2013-05-20 00:41:00,43.9,23.4,30.13,SW,224,0.0,0.0,44,0.00,,,0.00,Wunderground v.1.15,2013-05-20 07:41:00,
2013-05-20 00:46:00,44.1,23.6,30.13,SW,224,0.0,0.0,44,0.00,,,0.00,Wunderground v.1.15,2013-05-20 07:46:00,
2013-05-20 00:52:00,43.9,24.9,30.13,SW,224,0.0,0.0,47,0.00,,,0.00,Wunderground v.1.15,2013-05-20 07:52:00,
2013-05-20 00:57:00,43.6,23.6,30.13,NE,44,0.0,1.0,45,0.00,,,0.00,Wunderground v.1.15,2013-05-20 07:57:00,
2013-05-20 01:03:00,43.5,24.1,30.13,NE,44,0.0,0.0,46,0.00,,,0.00,Wunderground v.1.15,2013-05-20 08:03:00,
2013-05-20 01:08:00,43.6,24.7,30.13,NW,313,0.0,0.0,47,0.00,,,0.00,Wunderground v.1.15,2013-05-20 08:08:00,
2013-05-20 01:13:00,44.5,25.0,30.13,NW,313,0.0,0.0,46,0.00,,,0.00,Wunderground v.1.15,2013-05-20 08:13:00,
2013-05-20 01:19:00,44.6,25.6,30.11,NW,313,0.0,0.0,47,0.00,,,0.00,Wunderground v.1.15,2013-05-20 08:19:00,
2013-05-20 01:25:00,44.2,25.7,30.11,East,99,0.0,1.0,48,0.00,,,0.00,Wunderground v.1.15,2013-05-20 08:25:00,
2013-05-20 01:30:00,44.1,26.1,30.12,East,100,0.0,0.0,49,0.00,,,0.00,Wunderground v.1.15,2013-05-20 08:30:00,
2013-05-20 01:36:00,43.5,26.1,30.12,East,100,0.0,1.0,50,0.00,,,0.00,Wunderground v.1.15,2013-05-20 08:36:00,
2013-05-20 01:41:00,43.2,25.8,30.12,East,100,0.0,0.0,50,0.00,,,0.00,Wunderground v.1.15,2013-05-20 08:41:00,
2013-05-20 01:46:00,43.1,26.2,30.12,East,100,0.0,0.0,51,0.00,,,0.00,Wunderground v.1.15,2013-05-20 08:46:00,
2013-05-20 01:52:00,42.8,26.8,30.12,East,100,0.0,0.0,53,0.00,,,0.00,Wunderground v.1.15,2013-05-20 08:52:00,
2013-05-20 01:57:00,42.5,27.0,30.12,East,100,0.0,0.0,54,0.00,,,0.00,Wunderground v.1.15,2013-05-20 08:57:00,
2013-05-20 02:02:00,42.1,27.1,30.13,East,100,0.0,0.0,55,0.00,,,0.00,Wunderground v.1.15,2013-05-20 09:02:00,
2013-05-20 02:07:00,41.8,26.8,30.13,East,100,0.0,1.0,55,0.00,,,0.00,Wunderground v.1.15,2013-05-20 09:07:00,
2013-05-20 02:12:00,41.6,27.1,30.13,East,100,1.0,1.0,56,0.00,,,0.00,Wunderground v.1.15,2013-05-20 09:12:00,
2013-05-20 02:17:00,41.3,26.8,30.12,East,100,0.0,1.0,56,0.00,,,0.00,Wunderground v.1.15,2013-05-20 09:17:00,
2013-05-20 02:22:00,41.2,27.1,30.12,East,100,0.0,1.0,57,0.00,,,0.00,Wunderground v.1.15,2013-05-20 09:22:00,
2013-05-20 02:27:00,40.9,26.4,30.12,ENE,73,0.0,2.0,56,0.00,,,0.00,Wunderground v.1.15,2013-05-20 09:27:00,
2013-05-20 02:32:00,40.6,26.5,30.12,ENE,73,0.0,1.0,57,0.00,,,0.00,Wunderground v.1.15,2013-05-20 09:32:00,
2013-05-20 02:37:00,40.6,27.0,30.12,East,96,0.0,2.0,58,0.00,,,0.00,Wunderground v.1.15,2013-05-20 09:37:00,
2013-05-20 02:42:00,40.5,26.4,30.12,East,96,0.0,1.0,57,0.00,,,0.00,Wunderground v.1.15,2013-05-20 09:42:00,
2013-05-20 02:47:00,40.3,26.3,30.11,ESE,119,6.0,6.0,57,0.00,,,0.00,Wunderground v.1.15,2013-05-20 09:47:00,
2013-05-20 02:52:00,40.3,25.8,30.11,ESE,110,0.0,2.0,56,0.00,,,0.00,Wunderground v.1.15,2013-05-20 09:52:00,
2013-05-20 02:57:00,40.2,25.3,30.11,SE,136,4.0,4.0,55,0.00,,,0.00,Wunderground v.1.15,2013-05-20 09:57:00,
2013-05-20 03:02:00,40.2,24.4,30.13,ESE,116,2.0,4.0,53,0.00,,,0.00,Wunderground v.1.15,2013-05-20 10:02:00,
2013-05-20 03:07:00,40.2,24.4,30.13,ESE,102,2.0,4.0,53,0.00,,,0.00,Wunderground v.1.15,2013-05-20 10:07:00,
2013-05-20 03:13:00,40.2,24.4,30.13,ESE,102,2.0,2.0,53,0.00,,,0.00,Wunderground v.1.15,2013-05-20 10:13:00,
2013-05-20 03:18:00,40.1,24.3,30.12,ESE,102,0.0,6.0,53,0.00,,,0.00,Wunderground v.1.15,2013-05-20 10:18:00,
2013-05-20 03:23:00,39.9,24.6,30.12,ESE,102,1.0,2.0,54,0.00,,,0.00,Wunderground v.1.15,2013-05-20 10:23:00,
2013-05-20 03:28:00,39.8,24.9,30.12,ESE,102,0.0,4.0,55,0.00,,,0.00,Wunderground v.1.15,2013-05-20 10:28:00,
2013-05-20 03:33:00,39.6,24.7,30.12,ESE,102,0.0,1.0,55,0.00,,,0.00,Wunderground v.1.15,2013-05-20 10:33:00,
2013-05-20 03:39:00,39.3,24.9,30.12,ESE,102,0.0,2.0,56,0.00,,,0.00,Wunderground v.1.15,2013-05-20 10:39:00,
2013-05-20 03:44:00,39.2,24.8,30.13,ESE,102,0.0,4.0,56,0.00,,,0.00,Wunderground v.1.15,2013-05-20 10:44:00,
2013-05-20 03:49:00,39.1,24.3,30.13,ESE,102,0.0,4.0,55,0.00,,,0.00,Wunderground v.1.15,2013-05-20 10:49:00,
2013-05-20 03:54:00,39.1,23.8,30.13,ESE,104,0.0,4.0,54,0.00,,,0.00,Wunderground v.1.15,2013-05-20 10:54:00,
2013-05-20 03:59:00,39.1,23.8,30.13,ESE,104,1.0,4.0,54,0.00,,,0.00,Wunderground v.1.15,2013-05-20 10:59:00,
2013-05-20 04:05:00,38.9,24.1,30.13,ESE,104,1.0,4.0,55,0.00,,,0.00,Wunderground v.1.15,2013-05-20 11:05:00,
2013-05-20 04:10:00,38.9,24.1,30.13,ESE,104,1.0,4.0,55,0.00,,,0.00,Wunderground v.1.15,2013-05-20 11:10:00,
2013-05-20 04:15:00,38.8,23.6,30.14,ESE,104,0.0,4.0,54,0.00,,,0.00,Wunderground v.1.15,2013-05-20 11:15:00,
2013-05-20 04:20:00,38.6,23.4,30.14,ESE,104,0.0,0.0,54,0.00,,,0.00,Wunderground v.1.15,2013-05-20 11:20:00,
2013-05-20 04:25:00,38.5,23.3,30.14,ESE,104,0.0,1.0,54,0.00,,,0.00,Wunderground v.1.15,2013-05-20 11:25:00,
2013-05-20 04:30:00,38.3,23.5,30.14,ESE,104,0.0,0.0,55,0.00,,,0.00,Wunderground v.1.15,2013-05-20 11:30:00,
2013-05-20 04:35:00,38.0,23.7,30.14,ESE,104,0.0,1.0,56,0.00,,,0.00,Wunderground v.1.15,2013-05-20 11:35:00,
2013-05-20 04:40:00,37.9,23.6,30.14,ESE,104,0.0,1.0,56,0.00,,,0.00,Wunderground v.1.15,2013-05-20 11:40:00,
2013-05-20 04:46:00,37.8,23.5,30.14,ESE,104,0.0,1.0,56,0.00,,,0.00,Wunderground v.1.15,2013-05-20 11:46:00,
2013-05-20 04:51:00,37.5,23.2,30.14,ESE,104,0.0,0.0,56,0.00,,,0.00,Wunderground v.1.15,2013-05-20 11:51:00,
2013-05-20 04:56:00,37.2,23.4,30.14,ESE,104,0.0,1.0,57,0.00,,,0.00,Wunderground v.1.15,2013-05-20 11:56:00,
2013-05-20 05:01:00,37.0,23.2,30.15,ESE,104,0.0,0.0,57,0.00,,,0.00,Wunderground v.1.15,2013-05-20 12:01:00,
2013-05-20 05:06:00,36.8,23.0,30.15,ESE,104,0.0,0.0,57,0.00,,,0.00,Wunderground v.1.15,2013-05-20 12:06:00,
2013-05-20 05:11:00,36.6,22.8,30.15,ESE,104,0.0,0.0,57,0.00,,,0.00,Wunderground v.1.15,2013-05-20 12:11:00,
2013-05-20 05:16:00,36.3,22.9,30.15,ESE,104,0.0,0.0,58,0.00,,,0.00,Wunderground v.1.15,2013-05-20 12:16:00,
2013-05-20 05:21:00,36.3,22.9,30.15,ESE,104,0.0,0.0,58,0.00,,,0.00,Wunderground v.1.15,2013-05-20 12:21:00,
2013-05-20 05:26:00,36.2,22.8,30.15,ESE,104,0.0,0.0,58,0.00,,,0.00,Wunderground v.1.15,2013-05-20 12:26:00,
2013-05-20 05:31:00,36.0,23.0,30.16,ESE,104,0.0,0.0,59,0.00,,,0.00,Wunderground v.1.15,2013-05-20 12:31:00,
2013-05-20 05:36:00,35.9,23.4,30.16,ESE,104,0.0,1.0,60,0.00,,,0.00,Wunderground v.1.15,2013-05-20 12:36:00,
2013-05-20 05:41:00,35.8,23.3,30.16,ESE,104,0.0,0.0,60,0.00,,,0.00,Wunderground v.1.15,2013-05-20 12:41:00,
2013-05-20 05:46:00,35.6,23.1,30.16,ESE,104,0.0,1.0,60,0.00,,,0.00,Wunderground v.1.15,2013-05-20 12:46:00,
2013-05-20 05:51:00,35.6,23.1,30.16,ESE,104,0.0,0.0,60,0.00,,,0.00,Wunderground v.1.15,2013-05-20 12:51:00,
2013-05-20 05:56:00,35.5,23.0,30.16,ESE,104,0.0,0.0,60,0.00,,,0.00,Wunderground v.1.15,2013-05-20 12:56:00,
2013-05-20 06:01:00,35.3,22.8,30.17,ESE,104,0.0,0.0,60,0.00,,,0.00,Wunderground v.1.15,2013-05-20 13:01:00,
2013-05-20 06:06:00,35.2,23.1,30.17,ESE,104,0.0,0.0,61,0.00,,,0.00,Wunderground v.1.15,2013-05-20 13:06:00,
2013-05-20 06:11:00,35.3,23.6,30.17,ESE,104,0.0,0.0,62,0.00,,,0.00,Wunderground v.1.15,2013-05-20 13:11:00,
2013-05-20 06:16:00,35.5,23.8,30.18,ESE,104,0.0,1.0,62,0.00,,,0.00,Wunderground v.1.15,2013-05-20 13:16:00,
2013-05-20 06:21:00,35.9,24.1,30.18,ESE,104,0.0,1.0,62,0.00,,,0.00,Wunderground v.1.15,2013-05-20 13:21:00,
2013-05-20 06:26:00,36.5,23.5,30.18,ESE,104,0.0,1.0,59,0.00,,,0.00,Wunderground v.1.15,2013-05-20 13:26:00,
2013-05-20 06:31:00,37.3,23.9,30.17,ESE,104,0.0,0.0,58,0.00,,,0.00,Wunderground v.1.15,2013-05-20 13:31:00,
2013-05-20 06:36:00,38.3,23.5,30.17,ESE,104,0.0,1.0,55,0.00,,,0.00,Wunderground v.1.15,2013-05-20 13:36:00,
2013-05-20 06:42:00,39.8,24.5,30.17,ESE,104,0.0,1.0,54,0.00,,,0.00,Wunderground v.1.15,2013-05-20 13:42:00,
2013-05-20 06:47:00,41.1,24.8,30.15,ESE,104,0.0,4.0,52,0.00,,,0.00,Wunderground v.1.15,2013-05-20 13:47:00,
2013-05-20 06:52:00,42.1,26.2,30.15,ESE,104,0.0,1.0,53,0.00,,,0.00,Wunderground v.1.15,2013-05-20 13:52:00,
2013-05-20 06:57:00,43.1,26.7,30.15,ESE,104,0.0,1.0,52,0.00,,,0.00,Wunderground v.1.15,2013-05-20 13:57:00,
2013-05-20 07:02:00,44.3,25.3,30.14,ESE,104,1.0,1.0,47,0.00,,,0.00,Wunderground v.1.15,2013-05-20 14:02:00,
2013-05-20 07:07:00,45.7,25.5,30.14,ESE,104,1.0,1.0,45,0.00,,,0.00,Wunderground v.1.15,2013-05-20 14:07:00,
2013-05-20 07:12:00,47.3,25.9,30.14,ESE,104,0.0,0.0,43,0.00,,,0.00,Wunderground v.1.15,2013-05-20 14:12:00,
2013-05-20 07:17:00,48.6,25.3,30.16,ESE,104,0.0,1.0,40,0.00,,,0.00,Wunderground v.1.15,2013-05-20 14:17:00,
2013-05-20 07:22:00,49.8,26.4,30.16,ESE,104,0.0,0.0,40,0.00,,,0.00,Wunderground v.1.15,2013-05-20 14:22:00,
2013-05-20 07:27:00,50.4,29.3,30.16,ESE,104,0.0,0.0,44,0.00,,,0.00,Wunderground v.1.15,2013-05-20 14:27:00,
2013-05-20 07:32:00,50.1,30.6,30.15,North,359,0.0,2.0,47,0.00,,,0.00,Wunderground v.1.15,2013-05-20 14:32:00,
2013-05-20 07:37:00,50.1,30.1,30.15,North,359,0.0,2.0,46,0.00,,,0.00,Wunderground v.1.15,2013-05-20 14:37:00,
2013-05-20 07:42:00,50.4,28.7,30.15,North,359,0.0,0.0,43,0.00,,,0.00,Wunderground v.1.15,2013-05-20 14:42:00,
2013-05-20 07:47:00,50.7,28.4,30.14,North,359,0.0,1.0,42,0.00,,,0.00,Wunderground v.1.15,2013-05-20 14:47:00,
2013-05-20 07:52:00,51.3,27.8,30.14,North,359,0.0,0.0,40,0.00,,,0.00,Wunderground v.1.15,2013-05-20 14:52:00,
2013-05-20 07:57:00,51.6,28.0,30.14,North,359,0.0,1.0,40,0.00,,,0.00,Wunderground v.1.15,2013-05-20 14:57:00,
2013-05-20 08:02:00,51.9,28.9,30.14,North,353,0.0,1.0,41,0.00,,,0.00,Wunderground v.1.15,2013-05-20 15:02:00,
2013-05-20 08:07:00,52.2,28.0,30.14,North,353,0.0,1.0,39,0.00,,,0.00,Wunderground v.1.15,2013-05-20 15:07:00,
2013-05-20 08:12:00,52.5,27.6,30.14,North,6,2.0,2.0,38,0.00,,,0.00,Wunderground v.1.15,2013-05-20 15:12:00,
2013-05-20 08:17:00,52.3,29.9,30.17,North,6,0.0,2.0,42,0.00,,,0.00,Wunderground v.1.15,2013-05-20 15:17:00,
2013-05-20 08:22:00,52.8,30.3,30.17,North,6,0.0,2.0,42,0.00,,,0.00,Wunderground v.1.15,2013-05-20 15:22:00,
2013-05-20 08:27:00,53.2,30.1,30.17,North,0,1.0,2.0,41,0.00,,,0.00,Wunderground v.1.15,2013-05-20 15:27:00,
2013-05-20 08:32:00,53.5,30.4,30.16,NW,323,0.0,4.0,41,0.00,,,0.00,Wunderground v.1.15,2013-05-20 15:32:00,
2013-05-20 08:38:00,53.9,28.8,30.16,NW,323,0.0,4.0,38,0.00,,,0.00,Wunderground v.1.15,2013-05-20 15:38:00,
2013-05-20 08:43:00,54.1,29.7,30.16,NNW,346,0.0,4.0,39,0.00,,,0.00,Wunderground v.1.15,2013-05-20 15:43:00,
2013-05-20 08:48:00,54.5,30.0,30.15,North,7,0.0,4.0,39,0.00,,,0.00,Wunderground v.1.15,2013-05-20 15:48:00,
2013-05-20 08:53:00,54.8,30.3,30.15,North,8,1.0,4.0,39,0.00,,,0.00,Wunderground v.1.15,2013-05-20 15:53:00,
2013-05-20 08:58:00,54.8,30.9,30.15,NNE,14,1.0,6.0,40,0.00,,,0.00,Wunderground v.1.15,2013-05-20 15:58:00,
2013-05-20 09:03:00,54.7,30.8,30.15,NNE,24,0.0,1.0,40,0.00,,,0.00,Wunderground v.1.15,2013-05-20 16:03:00,
2013-05-20 09:08:00,54.5,31.9,30.15,NNW,342,0.0,4.0,42,0.00,,,0.00,Wunderground v.1.15,2013-05-20 16:08:00,
2013-05-20 09:13:00,54.7,32.0,30.15,NNE,16,2.0,4.0,42,0.00,,,0.00,Wunderground v.1.15,2013-05-20 16:13:00,
2013-05-20 09:18:00,55.0,31.1,30.15,North,0,2.0,4.0,40,0.00,,,0.00,Wunderground v.1.15,2013-05-20 16:18:00,
2013-05-20 09:23:00,55.3,32.6,30.15,NNW,329,0.0,4.0,42,0.00,,,0.00,Wunderground v.1.15,2013-05-20 16:23:00,
2013-05-20 09:29:00,55.6,30.4,30.15,North,359,1.0,4.0,38,0.00,,,0.00,Wunderground v.1.15,2013-05-20 16:29:00,
2013-05-20 09:34:00,55.9,29.3,30.14,North,356,0.0,1.0,36,0.00,,,0.00,Wunderground v.1.15,2013-05-20 16:34:00,
2013-05-20 09:39:00,56.3,30.3,30.14,North,354,0.0,6.0,37,0.00,,,0.00,Wunderground v.1.15,2013-05-20 16:39:00,
2013-05-20 09:44:00,56.7,28.6,30.13,WSW,237,0.0,4.0,34,0.00,,,0.00,Wunderground v.1.15,2013-05-20 16:44:00,
2013-05-20 09:49:00,57.3,29.1,30.13,WNW,299,1.0,4.0,34,0.00,,,0.00,Wunderground v.1.15,2013-05-20 16:49:00,
2013-05-20 09:54:00,57.8,25.7,30.13,East,80,0.0,4.0,29,0.00,,,0.00,Wunderground v.1.15,2013-05-20 16:54:00,
2013-05-20 09:59:00,58.3,25.3,30.11,NNE,23,1.0,7.0,28,0.00,,,0.00,Wunderground v.1.15,2013-05-20 16:59:00,
2013-05-20 10:04:00,58.7,24.8,30.11,NW,319,0.0,2.0,27,0.00,,,0.00,Wunderground v.1.15,2013-05-20 17:04:00,
2013-05-20 10:09:00,59.0,25.0,30.11,West,274,0.0,2.0,27,0.00,,,0.00,Wunderground v.1.15,2013-05-20 17:09:00,
2013-05-20 10:15:00,59.3,25.3,30.13,NE,40,4.0,9.0,27,0.00,,,0.00,Wunderground v.1.15,2013-05-20 17:15:00,
2013-05-20 10:20:00,59.6,25.5,30.13,North,10,8.0,8.0,27,0.00,,,0.00,Wunderground v.1.15,2013-05-20 17:20:00,
2013-05-20 10:25:00,59.8,25.7,30.13,NE,44,4.0,8.0,27,0.00,,,0.00,Wunderground v.1.15,2013-05-20 17:25:00,
2013-05-20 10:30:00,59.9,24.9,30.12,NE,42,0.0,2.0,26,0.00,,,0.00,Wunderground v.1.15,2013-05-20 17:30:00,
2013-05-20 10:35:00,60.5,26.3,30.12,NE,44,0.0,6.0,27,0.00,,,0.00,Wunderground v.1.15,2013-05-20 17:35:00,
2013-05-20 10:40:00,61.0,26.7,30.12,East,83,0.0,1.0,27,0.00,,,0.00,Wunderground v.1.15,2013-05-20 17:40:00,
2013-05-20 10:45:00,61.3,27.0,30.11,West,268,1.0,8.0,27,0.00,,,0.00,Wunderground v.1.15,2013-05-20 17:45:00,
2013-05-20 10:50:00,61.3,27.0,30.11,NNW,328,1.0,1.0,27,0.00,,,0.00,Wunderground v.1.15,2013-05-20 17:50:00,
2013-05-20 10:55:00,61.2,26.9,30.11,NW,311,0.0,7.0,27,0.00,,,0.00,Wunderground v.1.15,2013-05-20 17:55:00,
2013-05-20 11:00:00,61.2,26.0,30.11,NE,38,1.0,2.0,26,0.00,,,0.00,Wunderground v.1.15,2013-05-20 18:00:00,
2013-05-20 11:05:00,61.3,27.9,30.11,West,272,0.0,7.0,28,0.00,,,0.00,Wunderground v.1.15,2013-05-20 18:05:00,
2013-05-20 11:10:00,61.5,27.2,30.11,NW,309,2.0,7.0,27,0.00,,,0.00,Wunderground v.1.15,2013-05-20 18:10:00,
2013-05-20 11:15:00,61.8,27.4,30.12,NW,322,1.0,7.0,27,0.00,,,0.00,Wunderground v.1.15,2013-05-20 18:15:00,
2013-05-20 11:20:00,62.4,28.8,30.12,West,280,2.0,7.0,28,0.00,,,0.00,Wunderground v.1.15,2013-05-20 18:20:00,
2013-05-20 11:25:00,62.7,28.2,30.12,NW,306,0.0,9.0,27,0.00,,,0.00,Wunderground v.1.15,2013-05-20 18:25:00,
2013-05-20 11:31:00,63.1,28.5,30.10,WNW,299,4.0,8.0,27,0.00,,,0.00,Wunderground v.1.15,2013-05-20 18:31:00,
2013-05-20 11:36:00,63.4,28.8,30.10,NNW,333,6.0,8.0,27,0.00,,,0.00,Wunderground v.1.15,2013-05-20 18:36:00,
2013-05-20 11:41:00,63.5,27.0,30.10,WSW,253,0.0,6.0,25,0.00,,,0.00,Wunderground v.1.15,2013-05-20 18:41:00,
2013-05-20 11:46:00,63.7,27.2,30.10,North,359,4.0,6.0,25,0.00,,,0.00,Wunderground v.1.15,2013-05-20 18:46:00,
2013-05-20 11:51:00,64.2,26.6,30.10,West,263,0.0,2.0,24,0.00,,,0.00,Wunderground v.1.15,2013-05-20 18:51:00,
2013-05-20 11:56:00,64.2,25.6,30.10,North,359,1.0,7.0,23,0.00,,,0.00,Wunderground v.1.15,2013-05-20 18:56:00,
2013-05-20 12:01:00,64.5,25.8,30.10,West,261,1.0,2.0,23,0.00,,,0.00,Wunderground v.1.15,2013-05-20 19:01:00,
2013-05-20 12:06:00,64.7,26.0,30.10,NW,325,0.0,2.0,23,0.00,,,0.00,Wunderground v.1.15,2013-05-20 19:06:00,
2013-05-20 12:11:00,65.3,27.5,30.10,NW,311,8.0,9.0,24,0.00,,,0.00,Wunderground v.1.15,2013-05-20 19:11:00,
2013-05-20 12:16:00,65.6,26.8,30.08,West,265,0.0,9.0,23,0.00,,,0.00,Wunderground v.1.15,2013-05-20 19:16:00,
2013-05-20 12:21:00,66.0,27.1,30.08,North,359,1.0,8.0,23,0.00,,,0.00,Wunderground v.1.15,2013-05-20 19:21:00,
2013-05-20 12:26:00,65.8,25.9,30.08,NNW,340,0.0,8.0,22,0.00,,,0.00,Wunderground v.1.15,2013-05-20 19:26:00,
2013-05-20 12:31:00,66.1,27.2,30.07,North,0,4.0,6.0,23,0.00,,,0.00,Wunderground v.1.15,2013-05-20 19:31:00,
2013-05-20 12:36:00,66.1,27.2,30.07,WSW,253,0.0,8.0,23,0.00,,,0.00,Wunderground v.1.15,2013-05-20 19:36:00,
2013-05-20 12:41:00,66.4,28.5,30.07,NNE,27,10.0,10.0,24,0.00,,,0.00,Wunderground v.1.15,2013-05-20 19:41:00,
2013-05-20 12:46:00,66.4,26.4,30.06,North,0,1.0,10.0,22,0.00,,,0.00,Wunderground v.1.15,2013-05-20 19:46:00,
2013-05-20 12:51:00,66.8,26.7,30.06,WNW,298,2.0,7.0,22,0.00,,,0.00,Wunderground v.1.15,2013-05-20 19:51:00,
2013-05-20 12:56:00,67.6,28.5,30.06,NW,308,2.0,9.0,23,0.00,,,0.00,Wunderground v.1.15,2013-05-20 19:56:00,
2013-05-20 13:01:00,67.9,26.5,30.05,North,359,0.0,8.0,21,0.00,,,0.00,Wunderground v.1.15,2013-05-20 20:01:00,
2013-05-20 13:06:00,68.1,26.7,30.05,NNE,32,8.0,9.0,21,0.00,,,0.00,Wunderground v.1.15,2013-05-20 20:06:00,
2013-05-20 13:11:00,68.3,26.8,30.05,WSW,258,0.0,3.0,21,0.00,,,0.00,Wunderground v.1.15,2013-05-20 20:11:00,
2013-05-20 13:16:00,68.8,26.1,30.05,NNW,329,2.0,7.0,20,0.00,,,0.00,Wunderground v.1.15,2013-05-20 20:16:00,
2013-05-20 13:21:00,68.9,28.5,30.05,North,0,0.0,4.0,22,0.00,,,0.00,Wunderground v.1.15,2013-05-20 20:21:00,
2013-05-20 13:26:00,69.8,26.9,30.05,NE,37,7.0,9.0,20,0.00,,,0.00,Wunderground v.1.15,2013-05-20 20:26:00,
2013-05-20 13:32:00,69.8,26.9,30.04,NE,47,0.0,7.0,20,0.00,,,0.00,Wunderground v.1.15,2013-05-20 20:32:00,
2013-05-20 13:37:00,70.1,28.3,30.04,NNE,25,4.0,7.0,21,0.00,,,0.00,Wunderground v.1.15,2013-05-20 20:37:00,
2013-05-20 13:41:00,69.8,26.9,30.04,NNE,31,7.0,7.0,20,0.00,,,0.00,Wunderground v.1.15,2013-05-20 20:41:00,
2013-05-20 13:47:00,69.9,25.7,30.03,NNW,342,0.0,7.0,19,0.00,,,0.00,Wunderground v.1.15,2013-05-20 20:47:00,
2013-05-20 13:52:00,70.6,28.7,30.03,WNW,294,4.0,4.0,21,0.00,,,0.00,Wunderground v.1.15,2013-05-20 20:52:00,
2013-05-20 13:57:00,71.3,26.9,30.03,WNW,299,6.0,7.0,19,0.00,,,0.00,Wunderground v.1.15,2013-05-20 20:57:00,
2013-05-20 14:02:00,71.8,27.3,30.01,North,352,1.0,2.0,19,0.00,,,0.00,Wunderground v.1.15,2013-05-20 21:02:00,
2013-05-20 14:07:00,72.0,24.8,30.01,NW,306,2.0,8.0,17,0.00,,,0.00,Wunderground v.1.15,2013-05-20 21:07:00,
2013-05-20 14:12:00,72.1,26.2,30.01,West,272,0.0,6.0,18,0.00,,,0.00,Wunderground v.1.15,2013-05-20 21:12:00,
2013-05-20 14:17:00,73.0,28.3,30.02,NW,316,8.0,8.0,19,0.00,,,0.00,Wunderground v.1.15,2013-05-20 21:17:00,
2013-05-20 14:22:00,73.0,28.3,30.02,NE,52,4.0,8.0,19,0.00,,,0.00,Wunderground v.1.15,2013-05-20 21:22:00,
2013-05-20 14:27:00,72.7,26.7,30.02,NNW,335,4.0,8.0,18,0.00,,,0.00,Wunderground v.1.15,2013-05-20 21:27:00,
2013-05-20 14:32:00,73.3,27.2,30.01,NW,313,1.0,3.0,18,0.00,,,0.00,Wunderground v.1.15,2013-05-20 21:32:00,
2013-05-20 14:37:00,74.0,26.4,30.01,NNW,329,2.0,6.0,17,0.00,,,0.00,Wunderground v.1.15,2013-05-20 21:37:00,
2013-05-20 14:42:00,74.6,25.4,30.01,NW,323,0.0,1.0,16,0.00,,,0.00,Wunderground v.1.15,2013-05-20 21:42:00,
2013-05-20 14:47:00,73.9,27.7,29.99,NNE,16,7.0,10.0,18,0.00,,,0.00,Wunderground v.1.15,2013-05-20 21:47:00,
2013-05-20 14:52:00,73.7,26.1,29.99,West,277,0.0,4.0,17,0.00,,,0.00,Wunderground v.1.15,2013-05-20 21:52:00,
2013-05-20 14:57:00,74.0,27.8,29.99,NNW,328,1.0,6.0,18,0.00,,,0.00,Wunderground v.1.15,2013-05-20 21:57:00,
2013-05-20 15:02:00,74.4,26.7,29.98,NW,318,0.0,4.0,17,0.00,,,0.00,Wunderground v.1.15,2013-05-20 22:02:00,
2013-05-20 15:07:00,74.9,27.1,29.98,North,0,2.0,8.0,17,0.00,,,0.00,Wunderground v.1.15,2013-05-20 22:07:00,
2013-05-20 15:12:00,74.9,27.1,29.98,NW,311,0.0,8.0,17,0.00,,,0.00,Wunderground v.1.15,2013-05-20 22:12:00,
2013-05-20 15:17:00,74.9,27.1,29.98,NNE,23,4.0,8.0,17,0.00,,,0.00,Wunderground v.1.15,2013-05-20 22:17:00,
2013-05-20 15:22:00,75.4,27.5,29.98,WNW,294,0.0,7.0,17,0.00,,,0.00,Wunderground v.1.15,2013-05-20 22:22:00,
2013-05-20 15:27:00,76.3,28.3,29.98,NW,305,2.0,7.0,17,0.00,,,0.00,Wunderground v.1.15,2013-05-20 22:27:00,
2013-05-20 15:32:00,76.8,25.6,29.96,North,0,2.0,4.0,15,0.00,,,0.00,Wunderground v.1.15,2013-05-20 22:32:00,
2013-05-20 15:37:00,76.5,23.7,29.96,North,0,0.0,9.0,14,0.00,,,0.00,Wunderground v.1.15,2013-05-20 22:37:00,
2013-05-20 15:42:00,76.7,27.1,29.96,North,7,6.0,7.0,16,0.00,,,0.00,Wunderground v.1.15,2013-05-20 22:42:00,
2013-05-20 15:47:00,76.3,23.6,29.95,West,271,0.0,7.0,14,0.00,,,0.00,Wunderground v.1.15,2013-05-20 22:47:00,
2013-05-20 15:52:00,77.0,25.8,29.95,WSW,257,0.0,4.0,15,0.00,,,0.00,Wunderground v.1.15,2013-05-20 22:52:00,
2013-05-20 15:57:00,76.8,24.0,29.95,NE,38,1.0,9.0,14,0.00,,,0.00,Wunderground v.1.15,2013-05-20 22:57:00,
2013-05-20 16:02:00,76.1,26.6,29.95,NNW,335,0.0,2.0,16,0.00,,,0.00,Wunderground v.1.15,2013-05-20 23:02:00,
2013-05-20 16:07:00,76.5,28.4,29.95,North,0,1.0,7.0,17,0.00,,,0.00,Wunderground v.1.15,2013-05-20 23:07:00,
2013-05-20 16:12:00,76.0,26.5,29.95,NNE,31,1.0,7.0,16,0.00,,,0.00,Wunderground v.1.15,2013-05-20 23:12:00,
2013-05-20 16:17:00,76.1,26.6,29.95,NW,323,4.0,7.0,16,0.00,,,0.00,Wunderground v.1.15,2013-05-20 23:17:00,
2013-05-20 16:22:00,76.8,24.0,29.95,North,0,2.0,6.0,14,0.00,,,0.00,Wunderground v.1.15,2013-05-20 23:22:00,
2013-05-20 16:27:00,77.2,27.5,29.95,North,0,0.0,6.0,16,0.00,,,0.00,Wunderground v.1.15,2013-05-20 23:27:00,
2013-05-20 16:32:00,77.7,27.9,29.94,NE,35,1.0,4.0,16,0.00,,,0.00,Wunderground v.1.15,2013-05-20 23:32:00,
2013-05-20 16:37:00,77.4,26.1,29.94,North,10,1.0,8.0,15,0.00,,,0.00,Wunderground v.1.15,2013-05-20 23:37:00,
2013-05-20 16:42:00,76.7,27.1,29.94,NE,38,0.0,6.0,16,0.00,,,0.00,Wunderground v.1.15,2013-05-20 23:42:00,
2013-05-20 16:47:00,76.8,27.2,29.93,North,3,0.0,6.0,16,0.00,,,0.00,Wunderground v.1.15,2013-05-20 23:47:00,
2013-05-20 16:52:00,76.8,25.6,29.93,NE,34,2.0,6.0,15,0.00,,,0.00,Wunderground v.1.15,2013-05-20 23:52:00,
2013-05-20 16:57:00,76.5,25.4,29.93,North,0,0.0,6.0,15,0.00,,,0.00,Wunderground v.1.15,2013-05-20 23:57:00,
2013-05-20 17:02:00,76.8,25.6,29.92,North,0,0.0,2.0,15,0.00,,,0.00,Wunderground v.1.15,2013-05-21 00:02:00,
2013-05-20 17:08:00,77.2,25.9,29.92,WNW,299,1.0,8.0,15,0.00,,,0.00,Wunderground v.1.15,2013-05-21 00:08:00,
2013-05-20 17:13:00,77.7,26.3,29.92,North,357,2.0,6.0,15,0.00,,,0.00,Wunderground v.1.15,2013-05-21 00:13:00,
2013-05-20 17:19:00,77.9,28.1,29.93,NNW,337,0.0,6.0,16,0.00,,,0.00,Wunderground v.1.15,2013-05-21 00:19:00,
2013-05-20 17:24:00,77.4,27.7,29.93,NE,38,0.0,4.0,16,0.00,,,0.00,Wunderground v.1.15,2013-05-21 00:24:00,
2013-05-20 17:29:00,77.4,27.7,29.93,North,0,1.0,4.0,16,0.00,,,0.00,Wunderground v.1.15,2013-05-21 00:29:00,
2013-05-20 17:34:00,77.4,27.7,29.93,NNE,21,0.0,6.0,16,0.00,,,0.00,Wunderground v.1.15,2013-05-21 00:34:00,
2013-05-20 17:39:00,77.9,29.5,29.93,NW,311,0.0,6.0,17,0.00,,,0.00,Wunderground v.1.15,2013-05-21 00:39:00,
2013-05-20 17:44:00,78.8,28.8,29.91,North,8,2.0,4.0,16,0.00,,,0.00,Wunderground v.1.15,2013-05-21 00:44:00,
2013-05-20 17:49:00,79.0,25.7,29.91,NE,44,2.0,7.0,14,0.00,,,0.00,Wunderground v.1.15,2013-05-21 00:49:00,
2013-05-20 17:54:00,78.1,28.2,29.91,NNE,25,0.0,4.0,16,0.00,,,0.00,Wunderground v.1.15,2013-05-21 00:54:00,
2013-05-20 17:59:00,77.7,29.4,29.91,NNW,332,4.0,6.0,17,0.00,,,0.00,Wunderground v.1.15,2013-05-21 00:59:00,
2013-05-20 18:04:00,77.7,29.4,29.91,North,353,0.0,4.0,17,0.00,,,0.00,Wunderground v.1.15,2013-05-21 01:04:00,
2013-05-20 18:09:00,77.9,29.5,29.91,NE,34,0.0,4.0,17,0.00,,,0.00,Wunderground v.1.15,2013-05-21 01:09:00,
2013-05-20 18:14:00,77.9,31.0,29.86,North,352,0.0,4.0,18,0.00,,,0.00,Wunderground v.1.15,2013-05-21 01:14:00,
2013-05-20 18:19:00,77.6,30.7,29.86,NNE,27,0.0,6.0,18,0.00,,,0.00,Wunderground v.1.15,2013-05-21 01:19:00,
2013-05-20 18:24:00,77.2,31.7,29.86,NNE,17,1.0,6.0,19,0.00,,,0.00,Wunderground v.1.15,2013-05-21 01:24:00,
2013-05-20 18:29:00,77.6,33.3,29.87,West,274,0.0,6.0,20,0.00,,,0.00,Wunderground v.1.15,2013-05-21 01:29:00,
2013-05-20 18:34:00,77.9,32.3,29.87,WNW,289,4.0,4.0,19,0.00,,,0.00,Wunderground v.1.15,2013-05-21 01:34:00,
2013-05-20 18:39:00,78.3,32.6,29.87,NW,322,4.0,6.0,19,0.00,,,0.00,Wunderground v.1.15,2013-05-21 01:39:00,
2013-05-20 18:44:00,77.9,33.6,29.86,NW,318,4.0,10.0,20,0.00,,,0.00,Wunderground v.1.15,2013-05-21 01:44:00,
2013-05-20 18:49:00,77.6,34.6,29.86,NW,305,4.0,10.0,21,0.00,,,0.00,Wunderground v.1.15,2013-05-21 01:49:00,
2013-05-20 18:54:00,77.4,33.2,29.86,WNW,301,0.0,7.0,20,0.00,,,0.00,Wunderground v.1.15,2013-05-21 01:54:00,
2013-05-20 18:59:00,77.2,35.4,29.86,WNW,284,8.0,9.0,22,0.00,,,0.00,Wunderground v.1.15,2013-05-21 01:59:00,
2013-05-20 19:04:00,76.8,33.9,29.86,WNW,295,6.0,9.0,21,0.00,,,0.00,Wunderground v.1.15,2013-05-21 02:04:00,
2013-05-20 19:09:00,76.5,34.8,29.86,NW,312,7.0,9.0,22,0.00,,,0.00,Wunderground v.1.15,2013-05-21 02:09:00,
2013-05-20 19:14:00,75.4,33.9,29.83,WNW,284,9.0,11.0,22,0.00,,,0.00,Wunderground v.1.15,2013-05-21 02:14:00,
2013-05-20 19:19:00,74.6,32.1,29.83,NW,309,7.0,11.0,21,0.00,,,0.00,Wunderground v.1.15,2013-05-21 02:19:00,
2013-05-20 19:24:00,73.9,31.5,29.83,WNW,302,2.0,13.0,21,0.00,,,0.00,Wunderground v.1.15,2013-05-21 02:24:00,
2013-05-20 19:30:00,73.5,33.4,29.84,NW,304,7.0,7.0,23,0.00,,,0.00,Wunderground v.1.15,2013-05-21 02:30:00,
2013-05-20 19:35:00,73.0,31.9,29.84,North,0,1.0,8.0,22,0.00,,,0.00,Wunderground v.1.15,2013-05-21 02:35:00,
2013-05-20 19:40:00,72.5,31.5,29.84,WNW,294,7.0,7.0,22,0.00,,,0.00,Wunderground v.1.15,2013-05-21 02:40:00,
2013-05-20 19:45:00,72.0,32.1,29.85,NW,312,2.0,10.0,23,0.00,,,0.00,Wunderground v.1.15,2013-05-21 02:45:00,
2013-05-20 19:50:00,71.3,31.6,29.85,West,261,2.0,4.0,23,0.00,,,0.00,Wunderground v.1.15,2013-05-21 02:50:00,
2013-05-20 19:55:00,70.8,32.2,29.85,West,271,0.0,7.0,24,0.00,,,0.00,Wunderground v.1.15,2013-05-21 02:55:00,
2013-05-20 20:00:00,70.3,31.8,29.86,WNW,282,4.0,7.0,24,0.00,,,0.00,Wunderground v.1.15,2013-05-21 03:00:00,
2013-05-20 20:05:00,69.6,33.2,29.86,NW,323,2.0,7.0,26,0.00,,,0.00,Wunderground v.1.15,2013-05-21 03:05:00,
2013-05-20 20:10:00,68.9,32.6,29.86,WNW,301,0.0,2.0,26,0.00,,,0.00,Wunderground v.1.15,2013-05-21 03:10:00,
2013-05-20 20:15:00,68.4,33.1,29.85,NW,322,0.0,2.0,27,0.00,,,0.00,Wunderground v.1.15,2013-05-21 03:15:00,
2013-05-20 20:20:00,68.1,32.8,29.85,NW,322,0.0,0.0,27,0.00,,,0.00,Wunderground v.1.15,2013-05-21 03:20:00,
2013-05-20 20:25:00,67.6,32.4,29.85,NW,320,0.0,1.0,27,0.00,,,0.00,Wunderground v.1.15,2013-05-21 03:25:00,
2013-05-20 20:30:00,67.3,33.9,29.86,NW,320,0.0,0.0,29,0.00,,,0.00,Wunderground v.1.15,2013-05-21 03:30:00,
2013-05-20 20:35:00,66.6,34.2,29.86,NW,320,0.0,0.0,30,0.00,,,0.00,Wunderground v.1.15,2013-05-21 03:35:00,
2013-05-20 20:40:00,65.8,36.6,29.86,NW,320,0.0,1.0,34,0.00,,,0.00,Wunderground v.1.15,2013-05-21 03:40:00,
2013-05-20 20:45:00,64.8,36.5,29.87,East,96,0.0,1.0,35,0.00,,,0.00,Wunderground v.1.15,2013-05-21 03:45:00,
2013-05-20 20:50:00,63.7,35.5,29.87,East,95,0.0,0.0,35,0.00,,,0.00,Wunderground v.1.15,2013-05-21 03:50:00,
2013-05-20 20:55:00,62.9,36.2,29.87,East,95,0.0,1.0,37,0.00,,,0.00,Wunderground v.1.15,2013-05-21 03:55:00,
2013-05-20 21:00:00,62.3,35.7,29.89,ENE,58,1.0,1.0,37,0.00,,,0.00,Wunderground v.1.15,2013-05-21 04:00:00,
2013-05-20 21:01:00,62.1,35.5,29.89,ENE,59,1.0,1.0,37,0.00,,,0.00,Wunderground v.1.15,2013-05-21 04:01:00,
2013-05-20 21:02:00,62.1,35.5,29.89,ENE,59,1.0,2.0,37,0.00,,,0.00,Wunderground v.1.15,2013-05-21 04:02:00,
2013-05-20 21:07:00,61.6,35.1,29.89,ESE,102,0.0,6.0,37,0.00,,,0.00,Wunderground v.1.15,2013-05-21 04:07:00,
2013-05-20 21:12:00,61.3,35.5,29.89,East,97,0.0,2.0,38,0.00,,,0.00,Wunderground v.1.15,2013-05-21 04:12:00,
2013-05-20 21:17:00,61.3,34.1,29.88,East,97,0.0,2.0,36,0.00,,,0.00,Wunderground v.1.15,2013-05-21 04:17:00,
2013-05-20 21:22:00,61.0,35.2,29.88,ENE,62,0.0,1.0,38,0.00,,,0.00,Wunderground v.1.15,2013-05-21 04:22:00,
2013-05-20 21:27:00,60.7,34.9,29.88,ENE,61,0.0,2.0,38,0.00,,,0.00,Wunderground v.1.15,2013-05-21 04:27:00,
2013-05-20 21:32:00,60.4,34.0,29.89,ENE,61,0.0,1.0,37,0.00,,,0.00,Wunderground v.1.15,2013-05-21 04:32:00,
2013-05-20 21:37:00,60.1,34.4,29.89,ESE,102,1.0,6.0,38,0.00,,,0.00,Wunderground v.1.15,2013-05-21 04:37:00,
2013-05-20 21:42:00,60.2,32.4,29.89,ENE,65,0.0,1.0,35,0.00,,,0.00,Wunderground v.1.15,2013-05-21 04:42:00,
2013-05-20 21:47:00,60.7,32.1,29.90,ENE,66,0.0,4.0,34,0.00,,,0.00,Wunderground v.1.15,2013-05-21 04:47:00,
2013-05-20 21:52:00,60.7,32.9,29.90,ENE,78,0.0,1.0,35,0.00,,,0.00,Wunderground v.1.15,2013-05-21 04:52:00,
2013-05-20 21:57:00,60.7,32.9,29.90,ESE,112,0.0,4.0,35,0.00,,,0.00,Wunderground v.1.15,2013-05-21 04:57:00,
2013-05-20 22:02:00,60.4,32.6,29.90,ESE,107,0.0,4.0,35,0.00,,,0.00,Wunderground v.1.15,2013-05-21 05:02:00,
2013-05-20 22:07:00,60.2,31.0,29.90,ENE,64,1.0,4.0,33,0.00,,,0.00,Wunderground v.1.15,2013-05-21 05:07:00,
2013-05-20 22:12:00,60.4,31.1,29.90,ENE,72,1.0,2.0,33,0.00,,,0.00,Wunderground v.1.15,2013-05-21 05:12:00,
2013-05-20 22:17:00,60.2,31.0,29.89,ENE,72,0.0,2.0,33,0.00,,,0.00,Wunderground v.1.15,2013-05-21 05:17:00,
2013-05-20 22:22:00,59.9,31.4,29.89,ENE,72,0.0,1.0,34,0.00,,,0.00,Wunderground v.1.15,2013-05-21 05:22:00,
2013-05-20 22:27:00,59.6,31.9,29.89,ENE,72,0.0,1.0,35,0.00,,,0.00,Wunderground v.1.15,2013-05-21 05:27:00,
2013-05-20 22:32:00,59.3,31.6,29.89,ENE,72,0.0,1.0,35,0.00,,,0.00,Wunderground v.1.15,2013-05-21 05:32:00,
2013-05-20 22:37:00,58.9,34.0,29.89,East,100,1.0,6.0,39,0.00,,,0.00,Wunderground v.1.15,2013-05-21 05:37:00,
2013-05-20 22:42:00,58.7,34.4,29.89,East,100,1.0,4.0,40,0.00,,,0.00,Wunderground v.1.15,2013-05-21 05:42:00,
2013-05-20 22:47:00,58.6,35.0,29.89,East,100,2.0,4.0,41,0.00,,,0.00,Wunderground v.1.15,2013-05-21 05:47:00,
2013-05-20 22:52:00,58.6,35.0,29.89,East,100,0.0,4.0,41,0.00,,,0.00,Wunderground v.1.15,2013-05-21 05:52:00,
2013-05-20 22:58:00,58.4,34.8,29.89,East,100,0.0,4.0,41,0.00,,,0.00,Wunderground v.1.15,2013-05-21 05:58:00,
2013-05-20 23:03:00,58.3,34.7,29.89,East,100,0.0,1.0,41,0.00,,,0.00,Wunderground v.1.15,2013-05-21 06:03:00,
2013-05-20 23:08:00,58.1,34.5,29.89,East,100,0.0,1.0,41,0.00,,,0.00,Wunderground v.1.15,2013-05-21 06:08:00,
2013-05-20 23:13:00,58.0,35.0,29.89,East,100,0.0,1.0,42,0.00,,,0.00,Wunderground v.1.15,2013-05-21 06:13:00,
2013-05-20 23:18:00,57.5,35.7,29.87,East,100,0.0,1.0,44,0.00,,,0.00,Wunderground v.1.15,2013-05-21 06:18:00,
2013-05-20 23:23:00,57.2,36.6,29.87,East,100,0.0,0.0,46,0.00,,,0.00,Wunderground v.1.15,2013-05-21 06:23:00,
2013-05-20 23:28:00,56.7,36.1,29.87,East,100,0.0,0.0,46,0.00,,,0.00,Wunderground v.1.15,2013-05-21 06:28:00,
2013-05-20 23:34:00,56.3,36.3,29.86,East,100,0.0,1.0,47,0.00,,,0.00,Wunderground v.1.15,2013-05-21 06:34:00,
2013-05-20 23:39:00,55.7,36.3,29.86,East,100,0.0,1.0,48,0.00,,,0.00,Wunderground v.1.15,2013-05-21 06:39:00,
2013-05-20 23:44:00,55.3,35.4,29.86,East,100,0.0,0.0,47,0.00,,,0.00,Wunderground v.1.15,2013-05-21 06:44:00,
2013-05-20 23:49:00,55.0,35.7,29.87,East,100,0.0,0.0,48,0.00,,,0.00,Wunderground v.1.15,2013-05-21 06:49:00,
2013-05-20 23:54:00,54.2,35.9,29.87,East,100,0.0,0.0,50,0.00,,,0.00,Wunderground v.1.15,2013-05-21 06:54:00,
2013-05-20 23:59:00,53.8,36.1,29.87,East,100,0.0,0.0,51,0.00,,,0.00,Wunderground v.1.15,2013-05-21 06:59:00,